Temperature
20 20 20 19 19 19 19 18 18 18 18 18 18 18 18 17 17 17 17 17 17 17 17 17 17 17 17 17 16 16 16 16 16 16 16 16 16 16 16 16 16 16 16
21 20 20 19 19 19 18 18 18 18 18 18 18 17 17 17 17 17 17 17 17 17 17 17 17 16 16 16 16 16 16 16 16 16 16 16 16 16 16 15 16 16 16
20 20 20 19 19 19 18 18 18 18 18 17 17 17 17 17 17 17 17 17 17 17 16 16 16 16 16 16 16 16 16 16 16 16 16 16 16 15 15 15 15 15 15
20 20 19 19 19 19 18 18 18 18 18 17 17 17 17 17 17 17 17 16 16 16 16 16 16 16 16 16 16 16 16 16 15 15 15 15 15 15 15 15 15 15 15
20 19 19 19 18 18 18 18 18 17 17 17 17 17 17 17 16 16 16 16 16 16 16 16 16 15 15 15 15 15 15 15 15 15 15 15 15 15 15 15 14 15 15
20 20 19 19 18 18 18 18 17 17 17 17 17 16 16 16 16 16 16 16 16 16 16 15 15 15 15 15 15 15 15 15 15 15 15 15 15 15 14 14 14 14 14
20 19 19 18 18 18 18 17 17 17 17 16 16 16 16 16 16 16 16 16 15 15 15 15 15 15 15 15 15 15 15 14 14 14 14 14 14 14 14 14 14 14 14
19 19 19 18 18 17 17 17 17 16 16 16 16 16 15 15 15 15 15 15 15 15 15 15 15 15 14 14 14 14 14 14 14 14 14 14 14 14 14 14 14 14 14
19 18 18 18 17 17 17 16 16 16 16 16 15 15 15 15 15 15 15 15 15 15 15 14 14 14 14 14 14 14 14 14 14 13 14 14 14 13 13 13 13 13 13
18 18 17 17 17 17 16 16 16 16 16 15 15 15 15 15 15 15 15 14 14 14 14 14 14 14 14 14 14 14 14 14 13 13 13 13 13 13 13 13 13 13 13
17 17 17 17 16 16 16 16 16 16 15 15 15 15 15 15 14 14 14 14 14 14 14 14 14 13 13 13 13 13 13 13 13 13 13 13 13 13 13 13 13 13 13
17 17 16 16 16 16 15 15 15 15 15 15 15 14 14 14 14 14 14 14 14 14 13 13 13 13 13 13 13 13 13 13 13 13 13 13 13 13 13 13 12 12 12
16 16 16 15 15 15 15 15 15 14 14 14 14 14 14 14 13 13 13 13 13 13 13 13 13 12 12 12 13 12 12 12 12 12 12 12 12 12 12 12 12 12 12
16 15 15 15 15 15 14 14 14 14 14 14 13 13 13 13 13 13 13 13 13 13 13 12 12 12 12 12 12 12 12 12 12 12 12 12 12 12 12 12 12 12 12
15 15 15 15 14 14 14 14 14 14 14 13 13 13 13 13 12 12 12 12 12 12 12 12 12 12 12 12 12 12 12 11 11 11 11 11 11 11 11 11 11 11 11
14 14 14 14 14 14 13 13 13 13 13 13 13 13 13 12 12 12 12 12 12 12 12 12 12 11 11 11 11 11 11 11 11 11 11 11 11 10 10 10 10 10 10
14 14 13 13 13 13 13 13 12 12 12 12 12 12 12 12 12 12 12 12 12 12 11 11 11 11 11 11 11 11 11 11 10 10 10 10 10 10 10 10 10 10 10
13 13 13 13 13 13 12 12 12 12 12 12 12 12 12 12 12 12 11 11 11 11 11 11 11 10 10 10 10 10 10 10 10 10 10 10 10 10 10 10 9 9 9
13 13 13 12 12 12 12 12 12 12 12 12 11 11 11 11 11 11 11 11 11 11 10 10 10 10 10 10 10 10 10 10 10 10 10 9 9 9 9 9 9 9 9
12 12 12 12 12 12 12 11 11 11 11 11 11 11 11 11 11 11 11 11 10 10 10 10 10 9 9 9 9 9 9 9 9 9 9 9 9 9 9 9 9 9 9
12 12 12 12 11 11 11 11 11 11 11 11 11 11 10 11 11 10 10 10 10 10 10 10 9 9 9 9 9 9 9 9 9 8 8 8 8 8 8 8 8 8 8
12 12 11 11 11 11 11 11 11 11 11 10 10 10 10 10 10 10 10 10 10 9 9 9 9 9 9 8 8 8 8 8 8 8 8 8 8 8 8 8 8 8 8
12 11 11 11 11 11 11 11 11 11 10 10 10 10 10 10 10 10 9 9 9 9 9 9 9 8 8 8 8 8 8 7 7 7 7 7 7 7 7 7 7 7 7
11 11 11 11 11 11 11 11 11 10 10 10 10 10 10 9 9 9 9 9 9 9 9 8 8 8 8 8 7 7 7 7 7 7 7 7 6 6 6 7 7 7 7
11 11 11 11 11 11 10 10 10 10 10 10 10 9 9 9 9 9 9 9 9 8 8 8 8 8 7 7 7 7 7 6 6 6 6 6 6 6 6 6 6 6 6
11 11 11 11 11 10 10 10 10 10 10 9 9 9 9 9 9 8 8 8 8 8 8 8 7 7 7 7 6 6 6 6 6 6 6 6 6 6 6 6 6 6 6
Wind_Speed
9 8 7 7 7 6 6 6 6 5 5 4 4 5 4 4 3 3 3 3 3 4 3 3 4 3 2 2 2 3 3 3 4 4 3 2 2 3 3 4 5 6 7
9 8 7 6 6 6 6 6 5 5 5 5 4 4 4 4 4 4 4 3 3 3 4 3 4 3 3 3 2 3 3 3 4 4 3 2 3 3 2 2 3 4 5
8 8 7 6 7 6 6 5 5 5 5 4 4 4 4 4 4 4 4 4 3 4 4 3 4 3 3 3 3 3 3 3 3 3 3 2 2 2 1 2 3 2 4
8 8 8 8 7 7 6 5 5 5 5 5 5 5 4 4 4 3 4 4 4 3 3 3 4 4 4 4 3 3 3 3 2 2 2 2 2 2 1 2 2 2 3
9 8 8 7 7 6 5 5 5 5 5 4 4 4 4 4 4 4 4 4 4 3 3 3 4 4 5 4 3 3 3 2 2 2 2 2 2 2 2 2 3 2 3
9 9 8 7 6 6 6 5 5 4 4 4 5 5 5 5 5 5 4 3 4 4 4 4 3 3 3 3 4 4 4 4 4 3 3 4 5 4 3 3 2 1 3
8 8 8 8 7 7 7 6 6 6 5 4 5 5 5 5 6 5 6 4 4 4 5 4 4 3 2 2 3 3 3 4 6 6 5 5 5 5 4 4 4 4 4
8 8 8 8 7 7 6 6 6 5 5 5 4 4 4 5 6 6 5 4 4 4 5 5 4 3 3 3 3 3 3 3 4 4 5 6 5 4 5 6 5 4 2
7 7 7 8 8 7 7 6 5 5 4 4 3 4 4 4 5 5 4 3 2 3 3 3 3 3 4 4 3 3 3 5 5 5 6 6 6 6 4 2 2 2 2
6 6 7 7 8 8 8 6 4 4 5 4 3 3 3 3 3 3 4 2 2 2 2 2 3 3 4 4 3 3 4 5 4 3 3 4 4 4 5 5 5 4 2
5 4 4 5 6 6 5 5 4 4 4 3 3 2 2 2 2 2 4 3 3 2 2 2 3 3 4 5 5 5 7 5 3 3 3 3 2 2 3 3 4 5 4
5 4 4 4 4 4 4 4 4 4 4 2 2 1 0 1 2 3 4 4 4 2 2 3 3 3 4 4 4 5 5 3 2 2 2 2 2 3 3 4 4 4 5
4 4 4 3 3 4 4 4 4 4 4 3 2 2 1 1 1 1 2 2 2 2 2 3 3 4 3 3 4 4 3 2 2 2 3 4 3 3 3 2 2 1 1
5 4 4 4 4 3 3 4 4 4 4 3 2 2 1 1 1 1 0 0 1 0 1 2 3 3 1 1 2 1 1 2 3 3 4 3 2 2 2 2 2 1 1
4 4 4 4 4 3 2 2 4 4 5 6 4 4 3 3 4 4 3 1 1 1 0 1 2 2 2 2 2 2 2 1 2 2 2 2 2 2 2 2 2 1 2
4 4 3 3 3 3 3 2 3 1 2 4 5 4 4 4 4 3 3 2 1 2 2 1 0 1 1 1 2 2 2 2 2 2 2 2 3 3 2 2 1 2 3
5 4 3 3 3 3 3 4 1 2 2 0 1 3 4 3 2 2 1 0 2 4 2 1 0 1 1 1 1 1 2 2 2 1 2 2 2 2 2 2 2 2 3
4 3 4 3 3 3 3 3 3 3 1 1 2 0 1 2 2 1 2 4 3 2 1 0 1 1 1 1 1 1 1 1 1 1 1 2 2 2 2 2 2 3 3
4 3 3 3 3 3 3 3 3 3 2 1 1 1 1 1 1 1 3 2 1 1 1 1 1 1 1 1 1 1 1 1 1 1 1 2 2 2 2 3 3 4 3
3 4 4 3 3 2 2 2 2 3 2 2 1 1 0 2 1 0 1 2 2 2 2 1 1 0 0 0 1 1 1 1 1 1 1 2 2 1 2 2 2 2 3
3 3 4 4 3 3 2 2 2 3 3 3 2 2 4 2 2 2 2 2 2 2 2 2 1 1 0 0 0 1 1 1 1 2 2 2 2 2 2 2 2 2 2
3 3 3 3 3 2 2 2 2 2 3 3 2 2 4 2 2 1 2 2 2 2 2 2 2 1 1 1 1 1 1 0 1 2 2 3 2 2 2 2 2 2 2
3 3 2 2 2 3 2 2 2 3 3 3 3 3 3 2 2 2 2 2 2 2 1 1 1 1 0 1 1 1 1 0 1 1 2 2 2 2 2 2 2 2 2
3 3 3 2 2 2 1 1 2 2 3 3 3 3 2 2 2 2 2 1 1 1 1 1 1 1 2 2 2 2 2 1 2 1 2 2 2 2 2 2 3 3 3
3 3 3 2 2 1 1 1 2 2 2 2 2 2 1 1 1 1 1 0 0 0 0 1 2 3 3 3 3 2 3 4 4 3 2 2 3 3 3 3 3 3 3
3 4 3 2 2 2 2 2 2 2 1 1 1 1 1 1 1 1 0 1 1 1 2 2 3 4 4 3 3 3 4 4 4 4 3 2 2 3 3 3 4 3 3
Wind_Direction
181 182 184 185 185 177 179 183 185 186 185 185 181 189 199 205 198 188 202 206 217 232 227 217 229 220 224 233 219 210 209 197 227 258 240 252 238 260 273 256 249 238 242
181 177 181 179 178 181 187 188 184 186 185 184 177 183 198 201 197 197 210 210 210 227 232 226 239 229 225 228 219 221 221 212 207 246 258 246 240 242 250 270 264 256 246
178 178 180 178 180 187 191 190 186 185 188 189 182 185 198 200 199 207 208 206 209 223 227 223 232 223 236 239 232 230 229 227 209 222 253 249 252 254 272 283 281 283 270
174 177 183 188 189 191 189 186 186 184 186 192 194 194 197 197 197 205 209 207 213 223 224 221 226 223 230 233 233 234 228 225 219 218 247 263 261 264 220 260 289 285 274
172 178 188 189 184 181 181 185 185 187 193 195 196 204 206 206 209 201 212 214 213 224 232 235 238 231 224 225 229 228 223 220 218 221 242 248 256 247 238 237 253 273 277
175 185 187 180 180 183 188 185 184 193 199 193 202 209 214 223 220 208 202 216 213 215 230 243 248 232 232 242 243 227 210 209 217 218 231 234 239 232 229 228 226 247 272
179 185 185 185 187 191 190 183 190 196 199 204 211 209 218 227 220 212 213 210 217 223 227 231 242 243 217 241 272 270 253 232 208 202 220 235 235 226 216 227 225 226 237
182 186 184 182 188 188 184 189 194 192 196 203 208 213 220 232 226 224 221 212 218 227 229 219 220 227 227 218 241 266 269 259 235 214 218 235 237 230 212 213 222 231 258
184 187 187 184 184 184 188 193 192 187 194 202 201 204 219 245 236 221 207 209 229 241 238 222 207 214 232 215 206 237 267 273 262 249 245 248 252 249 222 190 199 194 255
190 191 188 182 181 189 193 194 193 186 192 194 198 204 210 234 240 215 182 182 225 259 263 251 233 226 237 214 205 218 247 263 274 288 288 284 271 261 227 202 197 200 219
187 181 178 181 184 185 187 187 180 179 177 180 180 195 206 219 228 185 162 167 195 224 257 268 264 250 252 241 219 225 239 245 248 244 256 274 280 270 245 230 208 198 205
169 166 173 180 182 176 169 174 167 165 164 169 162 155 259 260 221 188 171 178 183 183 239 257 260 266 268 260 240 241 242 232 235 237 241 254 258 260 258 243 237 229 224
150 157 163 159 159 162 163 163 154 154 162 170 166 175 229 281 263 216 186 186 184 183 233 263 269 262 268 276 268 248 230 217 217 237 244 247 248 252 256 262 262 256 271
137 152 156 151 153 150 156 163 160 165 166 164 173 187 210 258 266 282 296 116 97 68 299 296 298 296 275 277 307 288 240 213 211 232 246 251 255 259 258 242 237 248 275
129 139 143 145 143 138 137 159 169 183 181 178 193 196 194 230 251 231 203 211 226 233 308 21 17 8 4 348 339 329 302 285 259 257 251 256 259 257 260 251 220 204 221
126 134 146 150 146 141 129 82 43 112 161 187 197 194 206 214 222 221 213 225 220 170 122 93 21 322 288 288 296 309 309 284 268 262 255 246 247 249 261 273 236 215 227
139 147 150 149 145 142 146 147 141 11 25 118 203 199 193 193 194 212 250 131 117 122 114 127 208 280 284 282 275 274 284 279 260 253 259 260 257 254 249 252 250 248 250
133 138 141 150 152 155 161 169 170 173 174 351 357 335 187 179 184 198 105 93 70 85 123 174 269 292 290 280 264 259 276 293 278 250 254 261 262 263 261 258 254 253 257
133 139 138 139 147 153 150 147 148 148 148 146 75 358 2 103 122 119 119 115 154 212 237 253 267 285 297 297 294 286 283 313 326 265 254 260 257 253 261 259 258 258 253
138 137 135 136 141 143 144 151 157 159 155 155 168 211 88 91 100 114 167 195 198 211 218 235 254 271 322 354 356 11 14 7 0 329 281 283 284 263 256 264 259 260 260
146 146 137 138 151 157 158 170 174 167 169 179 200 199 166 159 181 195 206 215 214 220 222 224 228 232 259 16 40 48 40 18 358 338 327 316 307 285 265 255 260 258 261
147 148 156 164 162 158 168 179 178 177 182 185 194 194 184 174 181 194 221 232 229 223 214 212 233 240 229 190 138 103 85 33 345 336 326 324 325 318 307 296 285 271 262
145 145 147 153 164 167 170 182 186 185 184 180 176 177 184 195 201 204 217 236 243 241 204 170 200 289 8 130 133 132 140 263 292 300 312 312 317 319 313 307 298 280 272
145 149 149 146 144 150 160 181 179 172 169 172 175 180 184 191 193 201 211 221 245 244 204 156 136 117 90 82 80 62 41 356 330 302 294 289 297 308 314 310 302 284 276
140 140 139 141 141 142 155 155 151 155 158 159 162 160 161 167 184 212 231 239 182 23 69 101 102 104 97 85 73 39 10 3 352 335 310 301 298 301 302 299 300 296 290
141 138 147 161 166 161 163 162 153 152 160 158 150 148 156 169 185 190 156 82 64 59 59 74 89 96 88 71 55 34 12 358 344 331 315 302 302 304 308 300 298 300 294
Height
1511 1513 1516 1518 1520 1521 1522 1523 1524 1526 1526 1527 1527 1527 1528 1528 1528 1528 1528 1528 1528 1528 1529 1529 1529 1530 1530 1530 1530 1530 1530 1530 1529 1529 1529 1529 1529 1529 1529 1529 1528 1528 1528
1508 1511 1513 1515 1516 1518 1519 1521 1522 1523 1524 1524 1524 1525 1525 1525 1525 1525 1525 1525 1525 1525 1525 1525 1526 1526 1526 1527 1527 1526 1527 1526 1526 1525 1525 1525 1526 1526 1525 1525 1525 1525 1524
1506 1508 1510 1512 1513 1515 1516 1518 1519 1520 1521 1521 1522 1522 1522 1522 1522 1522 1522 1522 1522 1522 1522 1522 1522 1523 1522 1523 1522 1522 1523 1523 1522 1522 1521 1522 1522 1522 1521 1521 1521 1521 1521
1503 1504 1506 1508 1510 1512 1513 1515 1516 1517 1518 1518 1519 1519 1519 1519 1519 1519 1519 1519 1519 1519 1519 1519 1519 1519 1519 1519 1519 1519 1519 1519 1519 1518 1518 1518 1518 1518 1517 1517 1516 1517 1516
1499 1501 1502 1505 1507 1509 1510 1511 1512 1513 1514 1515 1516 1516 1516 1516 1515 1515 1515 1515 1515 1515 1515 1515 1516 1516 1515 1515 1515 1515 1515 1515 1515 1514 1514 1514 1514 1514 1513 1513 1513 1513 1512
1496 1497 1499 1501 1503 1504 1506 1507 1508 1510 1511 1511 1512 1512 1512 1512 1512 1512 1512 1512 1512 1512 1512 1512 1512 1512 1512 1512 1512 1511 1511 1511 1511 1511 1510 1510 1510 1510 1510 1510 1510 1509 1508
1492 1494 1496 1497 1499 1501 1502 1504 1505 1506 1507 1507 1508 1508 1508 1508 1509 1508 1508 1508 1508 1508 1508 1508 1508 1508 1508 1508 1508 1508 1507 1507 1508 1508 1507 1507 1507 1507 1506 1506 1506 1505 1504
1489 1490 1492 1493 1495 1497 1498 1500 1501 1502 1503 1503 1504 1504 1505 1505 1505 1505 1505 1505 1504 1504 1504 1504 1503 1503 1504 1504 1504 1503 1503 1503 1503 1504 1504 1503 1503 1503 1503 1503 1502 1502 1502
1485 1487 1488 1490 1491 1493 1494 1496 1497 1498 1499 1500 1500 1501 1501 1501 1501 1501 1501 1501 1500 1500 1500 1499 1499 1498 1499 1499 1499 1499 1499 1499 1499 1500 1500 1500 1500 1499 1499 1499 1498 1497 1496
1481 1483 1484 1486 1487 1489 1490 1492 1493 1494 1495 1496 1496 1497 1497 1497 1497 1497 1497 1497 1496 1495 1495 1495 1495 1495 1494 1494 1495 1495 1494 1495 1495 1495 1495 1496 1495 1495 1495 1494 1494 1493 1493
1478 1479 1481 1482 1484 1485 1487 1488 1489 1490 1491 1492 1492 1493 1493 1493 1493 1493 1493 1492 1492 1491 1491 1490 1490 1490 1490 1490 1490 1490 1490 1491 1491 1491 1490 1490 1491 1491 1490 1490 1490 1489 1489
1474 1475 1476 1478 1480 1481 1483 1484 1485 1487 1487 1488 1488 1489 1489 1489 1489 1489 1488 1488 1488 1487 1487 1486 1486 1486 1486 1486 1486 1486 1486 1487 1487 1486 1486 1485 1486 1486 1486 1486 1486 1486 1485
1470 1471 1472 1475 1476 1478 1479 1480 1481 1483 1484 1484 1485 1484 1485 1485 1486 1486 1486 1485 1485 1484 1483 1483 1483 1482 1482 1482 1482 1482 1482 1482 1482 1481 1481 1481 1482 1482 1482 1482 1482 1482 1482
1466 1467 1469 1471 1473 1474 1475 1476 1477 1478 1480 1480 1481 1481 1482 1483 1483 1483 1482 1482 1482 1481 1481 1480 1480 1479 1479 1479 1478 1478 1478 1478 1477 1477 1477 1477 1477 1478 1478 1477 1477 1477 1477
1464 1465 1466 1468 1470 1471 1472 1474 1475 1476 1477 1478 1479 1479 1479 1480 1480 1480 1480 1479 1479 1478 1478 1477 1477 1476 1475 1475 1475 1474 1474 1474 1473 1473 1473 1473 1473 1473 1473 1473 1473 1473 1473
1461 1463 1464 1466 1467 1469 1470 1472 1474 1475 1476 1477 1477 1477 1478 1478 1478 1478 1477 1477 1476 1476 1475 1474 1474 1473 1473 1472 1471 1470 1470 1469 1469 1469 1468 1468 1468 1468 1468 1469 1468 1468 1468
1460 1462 1463 1465 1466 1468 1469 1471 1471 1473 1474 1474 1475 1476 1476 1476 1476 1476 1475 1475 1474 1473 1472 1472 1471 1471 1470 1469 1468 1467 1466 1466 1466 1465 1465 1465 1465 1464 1464 1464 1464 1464 1464
1460 1462 1463 1464 1465 1467 1468 1469 1470 1471 1471 1472 1473 1474 1474 1474 1473 1473 1473 1473 1472 1471 1470 1469 1469 1468 1467 1467 1466 1465 1464 1463 1462 1462 1462 1461 1461 1460 1460 1460 1459 1460 1459
1459 1461 1462 1464 1465 1466 1467 1468 1469 1469 1470 1470 1471 1472 1472 1472 1472 1472 1471 1471 1470 1469 1468 1467 1467 1466 1465 1464 1463 1462 1461 1460 1459 1459 1459 1458 1457 1456 1456 1456 1456 1455 1455
1459 1461 1462 1463 1464 1465 1465 1466 1467 1468 1468 1469 1469 1470 1470 1470 1469 1469 1469 1469 1468 1467 1467 1466 1465 1464 1463 1462 1460 1459 1458 1457 1457 1456 1456 1455 1454 1453 1452 1452 1452 1452 1451
1460 1461 1462 1463 1463 1464 1464 1465 1466 1466 1466 1467 1467 1468 1468 1468 1468 1468 1467 1466 1466 1465 1464 1464 1463 1462 1461 1460 1459 1457 1456 1455 1455 1454 1453 1452 1451 1450 1449 1449 1448 1448 1448
1460 1461 1462 1462 1463 1463 1464 1464 1464 1464 1465 1465 1465 1466 1466 1466 1466 1465 1465 1465 1464 1463 1462 1462 1461 1460 1459 1458 1457 1455 1454 1453 1452 1452 1450 1449 1447 1447 1446 1445 1445 1445 1444
1459 1460 1461 1462 1462 1462 1462 1462 1462 1462 1463 1463 1464 1464 1464 1464 1464 1464 1463 1463 1462 1461 1461 1460 1459 1458 1457 1456 1455 1454 1452 1451 1450 1449 1448 1447 1445 1444 1443 1442 1441 1441 1440
1458 1460 1460 1461 1461 1461 1461 1461 1461 1461 1461 1461 1462 1462 1462 1462 1462 1462 1461 1461 1460 1459 1458 1458 1457 1456 1455 1454 1453 1451 1450 1449 1448 1447 1445 1444 1442 1441 1440 1439 1438 1438 1437
1458 1459 1460 1460 1460 1461 1461 1461 1460 1460 1460 1460 1460 1460 1460 1460 1460 1459 1459 1458 1457 1457 1456 1455 1454 1453 1453 1452 1451 1449 1448 1447 1446 1444 1443 1441 1440 1438 1437 1437 1436 1435 1434
1457 1458 1459 1460 1460 1460 1460 1460 1459 1459 1459 1458 1458 1458 1458 1458 1457 1457 1456 1456 1455 1454 1453 1452 1452 1451 1450 1449 1448 1447 1446 1444 1443 1442 1441 1439 1437 1436 1435 1434 1433 1432 1430